, MS

(GMT )
Nakika

Weather History for KIKT - April, 2014

Change the Weather History Date:

Monday, April 14, 2014

  Actual Average Record
Temperature  
Mean Temperature 74 °F -  
Max Temperature 77 °F - - ()
Min Temperature 71 °F - - ()
Cooling Degree Days 9    
Growing Degree Days 24 (Base 50)    
Moisture  
Dew Point 71 °F    
Average Humidity 87    
Maximum Humidity 94    
Minimum Humidity 78    
Precipitation  
Precipitation 0.00 in - - ()
Sea Level Pressure  
Sea Level Pressure 29.85 in    
Wind  
Wind Speed 12 mph (SSE)    
Max Wind Speed 21 mph    
Max Gust Speed 29 mph    
Visibility 6 miles    
Events      
Averages and records for this station are not official NWS values.
T = Trace of Precipitation, MM = Missing Value Source: NWS Daily Summary

Daily Weather History Graph

Daily Weather History Graph

Search for Another Location

Airport or City:

Astronomy

Apr. 14, 2014 Rise Set
Actual Time 6:28 AM CDT 7:18 PM CDT
Civil Twilight 6:04 AM CDT 7:42 PM CDT
Nautical Twilight 5:36 AM CDT 8:11 PM CDT
Astronomical Twilight 5:07 AM CDT 8:40 PM CDT
Moon 6:58 PM CDT (4/14) 5:57 AM CDT (4/14)
Length of Visible Light 13h 37m
Length of Day
12h 49m
Full, 100% of the Moon is Illuminated
Apr 14
Full
Apr 15
Full
Apr 22
Last Quarter
Apr 29
New
May 6
First Quarter

Hourly Weather History & Observations

Time (CDT) Temp. Dew Point Humidity Pressure Visibility Wind Dir Wind Speed Gust Speed Precip Events Conditions
12:15 AM 71.6 °F 69.8 °F 94% 29.94 in 7.0 mi SE 20.7 mph - N/A   Partly Cloudy
12:35 AM 71.6 °F 69.8 °F 94% 29.94 in 6.0 mi SE 19.6 mph - N/A   Clear
12:55 AM 71.6 °F 69.8 °F 94% 29.94 in 7.0 mi SE 18.4 mph - N/A   Clear
1:15 AM 71.6 °F 69.8 °F 94% 29.93 in 7.0 mi SE 17.3 mph - N/A   Clear
1:35 AM 71.6 °F 69.8 °F 94% 29.91 in 7.0 mi SE 20.7 mph - N/A   Clear
1:55 AM 71.6 °F 69.8 °F 94% 29.91 in 6.0 mi SE 17.3 mph - N/A   Clear
2:15 AM 71.6 °F 69.8 °F 94% 29.91 in 7.0 mi SE 16.1 mph - N/A   Clear
2:35 AM 71.6 °F 69.8 °F 94% 29.91 in 7.0 mi SSE 12.7 mph - N/A   Clear
2:55 AM 71.6 °F 69.8 °F 94% 29.89 in 7.0 mi SSE 11.5 mph - N/A   Clear
3:15 AM 71.6 °F 69.8 °F 94% 29.89 in 7.0 mi SSE 10.4 mph - N/A   Clear
3:35 AM 71.6 °F 69.8 °F 94% 29.88 in 7.0 mi SSE 10.4 mph - N/A   Clear
3:55 AM 73.4 °F 69.8 °F 88% 29.86 in 7.0 mi SSE 11.5 mph - N/A   Clear
4:15 AM 73.4 °F 69.8 °F 88% 29.86 in 8.0 mi South 9.2 mph 18.4 mph N/A   Clear
4:35 AM 73.4 °F 69.8 °F 88% 29.86 in 8.0 mi Variable 6.9 mph 13.8 mph N/A   Clear
4:55 AM 73.4 °F 69.8 °F 88% 29.85 in 9.0 mi Variable 6.9 mph - N/A   Clear
5:15 AM 73.4 °F 69.8 °F 88% 29.84 in 9.0 mi Variable 6.9 mph 15.0 mph N/A   Clear
5:35 AM 73.4 °F 69.8 °F 88% 29.85 in 8.0 mi Variable 5.8 mph 15.0 mph N/A   Clear
5:55 AM 73.4 °F 69.8 °F 88% 29.85 in 9.0 mi Variable 8.1 mph 15.0 mph N/A   Clear
6:15 AM 73.4 °F 68.0 °F 83% 29.85 in 9.0 mi Variable 6.9 mph 15.0 mph N/A   Clear
6:35 AM 73.4 °F 68.0 °F 83% 29.86 in 7.0 mi Variable 5.8 mph 13.8 mph N/A   Clear
6:55 AM 73.4 °F 68.0 °F 83% 29.86 in 7.0 mi Variable 6.9 mph 16.1 mph N/A   Clear
7:15 AM 75.2 °F 68.0 °F 78% 29.87 in 8.0 mi Variable 8.1 mph 15.0 mph N/A   Clear
7:35 AM 75.2 °F 68.0 °F 78% 29.88 in 7.0 mi Variable 3.5 mph 13.8 mph N/A   Clear
7:55 AM 75.2 °F 68.0 °F 78% 29.88 in 7.0 mi Variable 6.9 mph 15.0 mph N/A   Clear
8:15 AM 75.2 °F 69.8 °F 83% 29.88 in 7.0 mi South 9.2 mph 15.0 mph N/A   Clear
8:35 AM 75.2 °F 69.8 °F 83% 29.88 in 7.0 mi South 9.2 mph 19.6 mph N/A   Clear
8:55 AM 77.0 °F 69.8 °F 78% 29.89 in 8.0 mi South 9.2 mph 15.0 mph N/A   Clear
9:15 AM 77.0 °F 69.8 °F 78% 29.90 in 8.0 mi South 9.2 mph 17.3 mph N/A   Clear
9:35 AM 77.0 °F 69.8 °F 78% 29.90 in 7.0 mi South 9.2 mph 16.1 mph N/A   Clear
9:55 AM 77.0 °F 69.8 °F 78% 29.90 in 9.0 mi SSE 10.4 mph - N/A   Clear
10:15 AM 77.0 °F 69.8 °F 78% 29.90 in 7.0 mi SSE 12.7 mph - N/A   Clear
10:35 AM 77.0 °F 69.8 °F 78% 29.90 in 7.0 mi SSE 11.5 mph - N/A   Clear
10:55 AM 77.0 °F 69.8 °F 78% 29.90 in 7.0 mi SSE 11.5 mph 17.3 mph N/A   Clear
11:15 AM 77.0 °F 69.8 °F 78% 29.90 in 7.0 mi SSE 12.7 mph - N/A   Clear
11:35 AM 77.0 °F 69.8 °F 78% 29.90 in 8.0 mi South 9.2 mph 16.1 mph N/A   Clear
11:55 AM 77.0 °F 69.8 °F 78% 29.90 in 8.0 mi South 10.4 mph - N/A   Clear
12:15 PM 77.0 °F 69.8 °F 78% 29.89 in 7.0 mi SSE 11.5 mph - N/A   Clear
12:35 PM 77.0 °F 69.8 °F 78% 29.89 in 8.0 mi SSE 12.7 mph - N/A   Clear
12:55 PM 77.0 °F 69.8 °F 78% 29.88 in 8.0 mi SSE 12.7 mph - N/A   Clear
1:15 PM 77.0 °F 69.8 °F 78% 29.88 in 8.0 mi SSE 11.5 mph 17.3 mph N/A   Partly Cloudy
1:35 PM 77.0 °F 69.8 °F 78% 29.87 in 7.0 mi South 10.4 mph 16.1 mph N/A   Mostly Cloudy
1:55 PM 77.0 °F 71.6 °F 83% 29.86 in 8.0 mi South 10.4 mph - N/A   Mostly Cloudy
2:15 PM 77.0 °F 71.6 °F 83% 29.86 in 7.0 mi SSE 10.4 mph 16.1 mph N/A   Scattered Clouds
2:35 PM 77.0 °F 71.6 °F 83% 29.85 in 7.0 mi South 10.4 mph - N/A   Scattered Clouds
2:55 PM 77.0 °F 71.6 °F 83% 29.84 in 7.0 mi South 11.5 mph - N/A   Clear
3:15 PM 77.0 °F 71.6 °F 83% 29.82 in 7.0 mi SSE 11.5 mph 28.8 mph N/A   Clear
3:35 PM 77.0 °F 71.6 °F 83% 29.81 in 6.0 mi South 12.7 mph - N/A   Haze
3:55 PM 77.0 °F 71.6 °F 83% 29.80 in 5.0 mi South 9.2 mph 17.3 mph N/A   Clear
4:15 PM 77.0 °F 73.4 °F 89% 29.79 in 5.0 mi South 9.2 mph 16.1 mph N/A   Clear
4:35 PM 77.0 °F 73.4 °F 89% 29.78 in 4.0 mi Variable 6.9 mph 17.3 mph N/A   Partly Cloudy
4:55 PM 77.0 °F 73.4 °F 89% 29.77 in 4.0 mi Variable 8.1 mph 19.6 mph N/A   Mostly Cloudy
5:15 PM 77.0 °F 73.4 °F 89% 29.77 in 4.0 mi Variable 6.9 mph 16.1 mph N/A   Partly Cloudy
5:35 PM 75.2 °F 73.4 °F 94% 29.77 in 4.0 mi Variable 8.1 mph 15.0 mph N/A   Clear
5:55 PM 75.2 °F 73.4 °F 94% 29.77 in 4.0 mi South 10.4 mph 19.6 mph N/A   Scattered Clouds
6:15 PM 75.2 °F 73.4 °F 94% 29.76 in 4.0 mi Variable 10.4 mph 20.7 mph N/A   Partly Cloudy
6:35 PM 75.2 °F 73.4 °F 94% 29.76 in 3.0 mi SSW 17.3 mph - N/A   Scattered Clouds
6:55 PM 75.2 °F 73.4 °F 94% 29.77 in 3.0 mi SW 9.2 mph 21.9 mph N/A   Partly Cloudy
7:15 PM 75.2 °F 73.4 °F 94% 29.77 in 3.0 mi Variable 4.6 mph 18.4 mph N/A   Partly Cloudy
7:35 PM 75.2 °F 73.4 °F 94% 29.78 in 4.0 mi Variable 4.6 mph 11.5 mph N/A   Partly Cloudy
7:55 PM 75.2 °F 73.4 °F 94% 29.78 in 4.0 mi Variable 3.5 mph - N/A   Mostly Cloudy
8:15 PM 75.2 °F 73.4 °F 94% 29.77 in 4.0 mi Variable 4.6 mph - N/A   Mostly Cloudy
8:35 PM 75.2 °F 73.4 °F 94% 29.77 in 4.0 mi Variable 3.5 mph - N/A   Partly Cloudy
8:55 PM 75.2 °F 73.4 °F 94% 29.77 in 4.0 mi Variable 4.6 mph - N/A   Clear
9:15 PM 75.2 °F 73.4 °F 94% 29.79 in 4.0 mi Variable 4.6 mph 12.7 mph N/A   Clear
9:35 PM 75.2 °F 73.4 °F 94% 29.79 in 3.0 mi Variable 3.5 mph - N/A   Clear
9:55 PM 75.2 °F 73.4 °F 94% 29.79 in 3.0 mi Variable 4.6 mph 12.7 mph N/A   Partly Cloudy
10:15 PM 75.2 °F 73.4 °F 94% 29.78 in 3.0 mi Variable 4.6 mph - N/A   Clear
10:35 PM 75.2 °F 73.4 °F 94% 29.79 in 3.0 mi Variable 4.6 mph 15.0 mph N/A   Clear
11:15 PM 75.2 °F 73.4 °F 94% 29.81 in 3.0 mi SW 11.5 mph 18.4 mph N/A   Overcast
11:35 PM 75.2 °F 73.4 °F 94% 29.80 in 3.0 mi SW 11.5 mph 18.4 mph N/A   Overcast